Location: Baili�vre
(50.0696°N, 4.2409°E)
Time: 10:38:28
(UTC+00:00)

Cosmos 2322 Rocket - Pass Details

Date: 08 August 2020
Orbit: 831 x 852 km, 71.0° (Epoch: 20 September)

Event Time Altitude Azimuth Distance (km) Brightness Sun altitude
Rises 23:39:50 0° 320° (NW) 3,420 6.2 -24.1°
Reaches altitude 10° 23:42:57 10° 303° (WNW) 2,483 5.0 -24.1°
Maximum altitude 23:46:48 19° 261° (W) 1,921 3.9 -24.2°
Enters shadow 23:47:27 19° 252° (WSW) 1,938 3.9 -24.2°
